{"data":{"norad_id":44780,"intl_designator":"2019-076B","name":"NINGXIA-1 2","alt_names":[],"object_type":"PAYLOAD","status":"ACTIVE","operator":null,"country":"PRC","launch_date":"2019-11-13","launch_site_code":"TAISC","launch_vehicle":null,"mission":null,"orbit_class":"UNKNOWN","rcs_meters":null,"size_class":null,"mass_kg":null,"dimensions":null,"purposes":[],"wikipedia_slug":null,"has_3d_model":false,"image_url":null,"decayed_at":null,"tle_current":{"epoch":"2026-05-25T05:17:32.578080Z","epoch_age_seconds":52434,"freshness":"FRESH","line1":"1 44780U 19076B   26145.22051595 -.00000051  00000+0  51133-4 0  9996","line2":"2 44780  45.0092 282.8194 0006330  37.0810 323.0460 14.02053455334636","mean_motion":14.02053455,"eccentricity":0.000633,"inclination_deg":45.0092,"raan_deg":282.8194,"arg_perigee_deg":37.081,"mean_anomaly_deg":323.046,"bstar":5.1133e-5,"rev_number":33463,"period_min":102.70649773478,"perigee_km":882.094428416,"apogee_km":891.29170327936,"semimajor_km":7264.8300658477,"source":"CELESTRAK","updated_at":"2026-05-25T13:37:56.010885Z"}}}